Flag for Germany Weather past 2 weeks in Mosbach, Baden-Württemberg, Germany

Now
39 °F

Overcast.


Feels Like: 36 °F
Forecast: 31 / 40 °F
Wind: 5 mph from Southwest

Location: Oehringen

Current Time: Jan 28, 2015 at 3:54:05 PM

Latest Report: Jan 28, 2015 at 3:00 PM


Visibility: 16 mi

Pressure: 29.88 "Hg

Humidity: 73%

Dew point: 31 °F

Location of MosbachLocation

Historic Weather in Mosbach — Graph

°F

Mosbach temperature yesterday

Maximum temperature yesterday: 38 °F (at 3:00 PM)
Minimum temperature yesterday: 34 °F (at 12:00 AM)
Average temperature yesterday: 35 °F

Past Weeks' High & Low Weather Summary

 TemperatureHumidityPressure
High59 °F (Jan 13, 3:00 PM)100% (Jan 16, 6:00 PM)30.45 "Hg (Jan 16, 6:00 PM)
Low27 °F (Jan 21, 4:00 AM)29% (Jan 13, 2:00 PM)29.71 "Hg (Jan 15, 8:00 PM)
Average37 °F86%30.04 "Hg
* Reported Jan 13 2:00 PM — Jan 28 2:00 PM, Mosbach, Weather by CustomWeather, © 2014

Note: Actual official high and low records may vary slightly from our data, if they occured in-between our weather recording intervals... More about our weather records

Advertising

Mosbach weather history for previous 24 hours

 ConditionsComfort  
Time TempWeatherWind HumidityBarometerVisibility
2:00 PM
Jan 28
39 °FOvercast.6 mph74%29.93 "Hg13 mi
1:00 PM39 °FOvercast.5 mph75%30.00 "Hg17 mi
12:00 PM38 °FOvercast.5 mph79%30.04 "Hg12 mi
11:00 AM37 °FOvercast.5 mph80%30.08 "Hg10 mi
10:00 AM36 °FOvercast.3 mph85%30.10 "Hg9 mi
9:00 AM36 °FOvercast.2 mph89%30.13 "Hg5 mi
8:00 AM35 °FOvercast.2 mph92%30.14 "Hg4 mi
7:00 AM35 °FLight rain. Low clouds.3 mph94%30.15 "Hg2 mi
6:00 AM35 °FFreezing rain. Low clouds.3 mph95%30.16 "Hg2 mi
5:00 AM35 °FLight rain. Low clouds.5 mph93%30.18 "Hg3 mi
4:00 AM35 °FFog.3 mph94%30.19 "Hg2 mi
3:00 AM35 °FFog.3 mph95%30.21 "Hg2 mi
2:00 AM35 °FFog.3 mph96%30.22 "Hg2 mi
1:00 AM35 °FFog.3 mph96%30.22 "Hg2 mi
12:00 AM35 °FFog.3 mph96%30.23 "Hg2 mi
11:00 PM
Jan 27
35 °FFog.3 mph95%30.22 "Hg2 mi
10:00 PM35 °FLow clouds.5 mph97%30.23 "Hg2 mi
9:00 PM34 °FDrizzle. Low clouds.5 mph97%30.23 "Hg2 mi
8:00 PM35 °FDrizzle. Low clouds.5 mph96%30.23 "Hg3 mi
7:00 PM34 °FLight freezing rain. Low clouds.5 mph97%30.22 "Hg2 mi
6:00 PM35 °FLight rain. Low clouds.3 mph96%30.21 "Hg3 mi
5:00 PM36 °FLight freezing rain. Low clouds.5 mph93%30.21 "Hg6 mi
4:00 PM36 °FLow clouds.7 mph93%30.19 "Hg8 mi
3:00 PM38 °FDrizzle. Overcast.5 mph84%30.18 "Hg14 mi
Weather by CustomWeather, © 2014

See weather overviewHow to use our weather pages